Location: Unspecified
(0.0000°N, 0.0000°E)
Time: 12:55:37
(UTC+00:00)

Vanguard 2 Rocket - Pass Details

Date: 22 December 2018
Orbit: 554 x 3326 km, 32.9° (Epoch: 15 July)

Event Time Altitude Azimuth Distance (km) Brightness Sun altitude
Rises 17:44:15 0° 232° (SW) 6,476 13.2 3.3°
Reaches altitude 10° 17:50:52 10° 215° (SW) 5,874 12.1 1.8°
Maximum altitude 18:02:32 18° 176° (S) 5,543 11.2 -0.9°
Drops below altitude 10° 18:14:46 10° 138° (SE) 6,182 11.0 -3.7°
Sets 18:22:04 0° 121° (ESE) 6,923 11.0 -5.4°
